Weather History for KJBR - November, 2011

Change the Weather History Date:

Tuesday, November 15, 2011

  Actual Average Record
Temperature  
Mean Temperature 59 °F 50 °F  
Max Temperature 60 °F 60 °F 81 °F (1964)
Min Temperature 57 °F 40 °F 13 °F (1940)
Degree Days  
Heating Degree Days 6 15  
Month to date heating degree days 129 184  
Since 1 July heating degree days 304 371  
Cooling Degree Days 0 0  
Month to date cooling degree days 9 1  
Year to date cooling degree days 2223 1825  
Growing Degree Days 8 (Base 50)    
Moisture  
Dew Point 56 °F    
Average Humidity 90    
Maximum Humidity 93    
Minimum Humidity 86    
Precipitation  
Precipitation 3.71 in 0.21 in 3.71 in (2011)
Month to date precipitation 6.02 2.16  
Year to date precipitation 45.84 40.59  
Snow  
Snow 0.00 in 0.00 in T in (1916)
Month to date snowfall 0.0 0.0  
Since 1 July snowfall 0.0 0.0  
Since 1 September snowfall 0.0 0.0  
Snow Depth -    
Sea Level Pressure  
Sea Level Pressure 29.82 in    
Wind  
Wind Speed 7 mph (East)    
Max Wind Speed 14 mph    
Max Gust Speed 18 mph    
Visibility 6 miles    
Events Rain , Thunderstorm    
T = Trace of Precipitation, MM = Missing Value Source: NWS Daily Summary

Daily Weather History Graph

Daily Weather History Graph

Search for Another Location

Airport or City:

Trip Planner

Search our weather history database for the weather conditions in past years. The results will help you decide how hot, cold, wet, or windy it might be!

Date:

Astronomy

Nov. 15, 2011 Rise Set
Actual Time 6:38 AM CST 4:55 PM CST
Civil Twilight 6:11 AM CST 5:22 PM CST
Nautical Twilight 5:40 AM CST 5:53 PM CST
Astronomical Twilight 5:10 AM CST 6:23 PM CST
Moon 9:05 PM CST (11/15) 10:37 AM CST (11/15)
Length of Visible Light 11h 11m
Length of Day
10h 16m
Waning Gibbous, 79% of the Moon is Illuminated
Nov 15
Waning Gibbous
Nov 18
Last Quarter
Nov 25
New
Dec 2
First Quarter
Dec 10
Full

Hourly Weather History & Observations

Time (CST) Temp. Dew Point Humidity Pressure Visibility Wind Dir Wind Speed Gust Speed Precip Events Conditions
12:53 AM 57.9 °F 54.0 °F 87% 29.87 in 10.0 mi NNE 4.6 mph - 0.03 in Rain Light Rain
1:53 AM 57.9 °F 54.0 °F 87% 29.86 in 10.0 mi ENE 8.1 mph - 0.00 in   Overcast
2:39 AM 57.2 °F 53.6 °F 88% 29.85 in 10.0 mi ENE 13.8 mph - 0.00 in Rain Light Rain
2:53 AM 57.0 °F 53.1 °F 87% 29.84 in 8.0 mi NE 10.4 mph - 0.00 in Rain Light Rain
3:05 AM 57.2 °F 53.6 °F 88% 29.83 in 9.0 mi ENE 11.5 mph - 0.01 in Rain Light Rain
3:12 AM 57.2 °F 53.6 °F 88% 29.83 in 10.0 mi East 6.9 mph - 0.01 in Rain Light Rain
3:32 AM 57.2 °F 53.6 °F 88% 29.84 in 1.8 mi ENE 4.6 mph - 0.22 in Rain Heavy Rain
3:48 AM 57.2 °F 53.6 °F 88% 29.84 in 2.0 mi ENE 9.2 mph - 0.44 in Rain Heavy Rain
3:53 AM 57.0 °F 54.0 °F 89% 29.84 in 2.5 mi ENE 9.2 mph - 0.49 in Rain Heavy Rain
4:53 AM 57.0 °F 54.0 °F 89% 29.86 in 3.0 mi East 6.9 mph - 0.59 in Rain Heavy Rain
5:13 AM 57.2 °F 53.6 °F 88% 29.86 in 4.0 mi East 6.9 mph - 0.12 in Rain Rain
5:26 AM 57.2 °F 53.6 °F 88% 29.86 in 2.0 mi East 8.1 mph - 0.29 in Rain Heavy Rain
5:51 AM 57.2 °F 53.6 °F 88% 29.85 in 4.0 mi East 9.2 mph - 0.54 in Rain Heavy Rain
5:53 AM 57.0 °F 54.0 °F 89% 29.84 in 4.0 mi East 9.2 mph - 0.55 in Rain Heavy Rain
6:53 AM 57.2 °F 55.4 °F 94% 29.85 in 4.0 mi ENE 9.2 mph - N/A Rain Heavy Rain
7:53 AM 57.9 °F 55.0 °F 90% 29.86 in 3.0 mi East 5.8 mph - 0.17 in Rain Rain
8:46 AM 59.0 °F 55.4 °F 88% 29.86 in 9.0 mi ENE 5.8 mph - 0.09 in Rain Light Rain
8:53 AM 59.0 °F 55.9 °F 90% 29.86 in 7.0 mi East 4.6 mph - 0.10 in Rain Light Rain
9:07 AM 59.0 °F 55.4 °F 88% 29.86 in 3.0 mi ESE 8.1 mph - 0.05 in Rain Heavy Rain
9:15 AM 59.0 °F 55.4 °F 88% 29.85 in 3.0 mi ESE 10.4 mph - 0.08 in Rain Heavy Rain
9:22 AM 59.0 °F 55.4 °F 88% 29.85 in 4.0 mi East 8.1 mph - 0.10 in Rain Rain
9:32 AM 59.0 °F 55.4 °F 88% 29.84 in 6.0 mi East 5.8 mph - 0.12 in Rain Rain
9:48 AM 59.0 °F 55.4 °F 88% 29.86 in 10.0 mi SE 9.2 mph - 0.13 in Rain Light Rain
9:53 AM 59.0 °F 55.9 °F 90% 29.84 in 7.0 mi ESE 9.2 mph - 0.14 in Rain Rain
10:33 AM 59.0 °F 55.4 °F 88% 29.85 in 3.0 mi SE 9.2 mph - 0.13 in Rain Heavy Rain
10:41 AM 59.0 °F 55.4 °F 88% 29.85 in 5.0 mi ESE 6.9 mph - 0.14 in Rain Rain
10:53 AM 59.0 °F 55.9 °F 90% 29.85 in 4.0 mi SE 9.2 mph - 0.17 in Rain Rain
11:53 AM 59.0 °F 55.9 °F 90% 29.81 in 5.0 mi SE 11.5 mph - 0.15 in Rain Rain
12:18 PM 59.0 °F 55.4 °F 88% 29.82 in 4.0 mi SE 9.2 mph - 0.07 in Rain Rain
12:40 PM 59.0 °F 55.4 °F 88% 29.81 in 5.0 mi SE 6.9 mph - 0.14 in Rain Rain
12:53 PM 59.0 °F 55.9 °F 90% 29.80 in 5.0 mi SE 6.9 mph - 0.18 in Rain Rain
1:53 PM 60.1 °F 57.0 °F 90% 29.78 in 10.0 mi SE 6.9 mph - 0.05 in Rain Light Rain
2:32 PM 60.8 °F 57.2 °F 88% 29.79 in 10.0 mi East 4.6 mph - 0.01 in Rain Light Rain
2:53 PM 60.1 °F 57.0 °F 90% 29.80 in 10.0 mi SSE 5.8 mph - 0.01 in Rain Light Rain
3:53 PM 60.8 °F 57.2 °F 88% 29.80 in 5.0 mi SE 5.8 mph - N/A Rain Rain
4:53 PM 59.0 °F 57.2 °F 94% 29.80 in 9.0 mi Calm Calm - N/A Rain Light Rain
5:53 PM 59.0 °F 55.9 °F 90% 29.80 in 10.0 mi NNE 3.5 mph - 0.01 in   Overcast
6:41 PM 60.8 °F 57.2 °F 88% 29.81 in 10.0 mi NNE 4.6 mph - 0.00 in   Overcast
6:53 PM 60.1 °F 57.0 °F 90% 29.81 in 10.0 mi NNE 4.6 mph - 0.00 in Rain Light Rain
7:53 PM 60.1 °F 57.0 °F 90% 29.80 in 5.0 mi NE 6.9 mph - 0.01 in Rain Light Rain
8:14 PM 59.0 °F 57.2 °F 94% 29.80 in 5.0 mi NE 6.9 mph - 0.00 in   Overcast
8:28 PM 59.0 °F 57.2 °F 94% 29.79 in 2.0 mi NE 5.8 mph - 0.00 in   Overcast
8:41 PM 59.0 °F 57.2 °F 94% 29.78 in 4.0 mi NE 8.1 mph - 0.00 in   Overcast
8:53 PM 59.0 °F 57.0 °F 93% 29.79 in 4.0 mi NE 5.8 mph - 0.00 in   Overcast
9:53 PM 59.0 °F 57.0 °F 93% 29.78 in 5.0 mi NNE 9.2 mph - 0.03 in Rain Rain
10:08 PM 59.0 °F 57.2 °F 94% 29.80 in 5.0 mi Variable 3.5 mph - 0.04 in Rain , Thunderstorm Rain
10:36 PM 59.0 °F 57.2 °F 94% 29.79 in 2.5 mi North 4.6 mph - 0.25 in Rain Heavy Rain
10:39 PM 59.0 °F 57.2 °F 94% 29.79 in 3.0 mi NNE 4.6 mph - 0.26 in Rain Heavy Rain
10:53 PM 59.0 °F 57.0 °F 93% 29.80 in 4.0 mi Calm Calm - 0.32 in Rain , Thunderstorm Rain
11:20 PM 59.0 °F 57.2 °F 94% 29.83 in 3.0 mi SSE 6.9 mph - N/A Rain Heavy Rain
11:32 PM 59.0 °F 57.2 °F 94% 29.82 in 4.0 mi East 6.9 mph - 0.20 in Rain , Thunderstorm Heavy Rain
11:41 PM 59.0 °F 57.2 °F 94% 29.80 in 4.0 mi NE 9.2 mph - 0.25 in Rain Heavy Rain
11:48 PM 59.0 °F 57.2 °F 94% 29.79 in 5.0 mi NNE 9.2 mph - 0.27 in Rain , Thunderstorm Rain
11:53 PM 59.0 °F 57.0 °F 93% 29.79 in 6.0 mi NNE 6.9 mph - 0.28 in Rain , Thunderstorm Rain